Powrót do katalogu

COSMOS 2251 DEB

AktywnyLEO
NORAD 33797·DEBRIS·🇷🇺 Russia

Wystrzelony Jun 16, 1993 z Plesetsk Cosmodrome

Loading…

Następne Przeloty (najbliższe 24 godziny)

TLE

ŚwieżeSource: Space-Track

Epoka: Sep 14, 2026, 08:31 UTC

1 33797U 93036AN  26257.35524576  .00001085  00000-0  23201-3 0  9994
2 33797  74.0442 230.6300 0063403 248.3309 170.8096 14.58859624930039

Śledź COSMOS 2251 DEB w czasie rzeczywistym z AllMySat

Download on the App Store